TimeEST,TemperatureF,Dew PointF,Humidity,Sea Level PressureIn,VisibilityMPH,Wind Direction,Wind SpeedMPH,Gust SpeedMPH,PrecipitationIn,Events,Conditions,WindDirDegrees,DateUTC
12:15 AM,53.4,39.7,60,30.15,10.0,East,9.2,-,N/A,,Overcast,90,2013-02-22 05:15:00
12:35 AM,52.7,39.9,62,30.15,10.0,East,5.8,-,N/A,,Mostly Cloudy,100,2013-02-22 05:35:00
12:55 AM,52.0,40.1,64,30.14,10.0,East,8.1,-,N/A,,Scattered Clouds,80,2013-02-22 05:55:00
1:15 AM,52.0,39.9,63,30.16,10.0,East,5.8,-,N/A,,Scattered Clouds,80,2013-02-22 06:15:00
1:35 AM,51.8,39.9,64,30.18,10.0,ENE,4.6,-,N/A,,Overcast,70,2013-02-22 06:35:00
1:55 AM,51.8,40.1,64,30.20,10.0,NNE,3.5,-,N/A,,Overcast,30,2013-02-22 06:55:00
2:15 AM,51.6,39.7,64,30.20,10.0,NNE,6.9,-,N/A,,Overcast,30,2013-02-22 07:15:00
2:35 AM,51.3,40.1,66,30.21,10.0,NNE,4.6,-,N/A,,Overcast,30,2013-02-22 07:35:00
2:55 AM,51.3,39.6,64,30.20,10.0,NE,3.5,-,N/A,,Overcast,40,2013-02-22 07:55:00
3:15 AM,51.1,40.1,66,30.19,10.0,NE,6.9,-,N/A,,Overcast,40,2013-02-22 08:15:00
3:35 AM,50.9,39.4,65,30.19,10.0,NE,8.1,-,N/A,,Overcast,50,2013-02-22 08:35:00
3:55 AM,49.8,39.9,69,30.17,10.0,NE,10.4,-,N/A,,Overcast,50,2013-02-22 08:55:00
4:15 AM,48.2,40.8,76,30.18,10.0,NNE,8.1,-,N/A,,Overcast,30,2013-02-22 09:15:00
4:35 AM,45.1,43.2,93,30.19,4.0,NNE,6.9,-,N/A,,Overcast,20,2013-02-22 09:35:00
4:55 AM,44.1,43.9,99,30.18,3.0,East,5.8,-,N/A,,Overcast,90,2013-02-22 09:55:00
5:15 AM,43.9,43.7,99,30.16,5.0,East,8.1,-,N/A,,Overcast,80,2013-02-22 10:15:00
5:35 AM,43.7,43.3,99,30.16,5.0,ENE,9.2,-,N/A,,Overcast,60,2013-02-22 10:35:00
5:55 AM,43.3,43.3,100,30.19,4.0,NE,5.8,-,N/A,,Overcast,50,2013-02-22 10:55:00
6:15 AM,43.0,43.0,100,30.20,1.8,NE,5.8,-,N/A,,Overcast,50,2013-02-22 11:15:00
6:35 AM,42.4,42.4,100,30.19,2.5,ENE,11.5,-,N/A,,Overcast,70,2013-02-22 11:35:00
6:55 AM,41.9,41.9,100,30.17,2.5,East,10.4,19.6,N/A,,Overcast,80,2013-02-22 11:55:00
7:15 AM,41.7,41.7,100,30.21,2.0,NE,6.9,-,N/A,,Overcast,50,2013-02-22 12:15:00
7:35 AM,41.4,41.4,100,30.19,2.0,East,8.1,-,N/A,,Overcast,80,2013-02-22 12:35:00
7:55 AM,41.0,41.0,100,30.18,4.0,East,9.2,19.6,N/A,,Overcast,90,2013-02-22 12:55:00
8:15 AM,41.2,41.2,100,30.18,7.0,East,9.2,18.4,N/A,,Overcast,90,2013-02-22 13:15:00
8:35 AM,41.2,41.2,100,30.20,2.5,ENE,8.1,-,N/A,,Overcast,60,2013-02-22 13:35:00
8:55 AM,41.0,41.0,100,30.22,1.8,North,5.8,-,N/A,,Overcast,10,2013-02-22 13:55:00
9:15 AM,41.0,41.0,100,30.22,1.0,North,5.8,-,N/A,,Overcast,10,2013-02-22 14:15:00
9:35 AM,40.8,40.8,100,30.21,1.8,NNE,5.8,-,N/A,,Overcast,30,2013-02-22 14:35:00
9:55 AM,40.8,40.8,100,30.21,2.5,NE,5.8,-,N/A,,Overcast,50,2013-02-22 14:55:00
10:15 AM,41.2,41.2,100,30.22,3.0,North,5.8,-,N/A,,Overcast,10,2013-02-22 15:15:00
10:35 AM,41.2,41.2,100,30.22,1.8,NE,3.5,-,N/A,,Overcast,50,2013-02-22 15:35:00
10:55 AM,41.2,41.2,100,30.21,2.5,NNE,6.9,-,N/A,,Overcast,20,2013-02-22 15:55:00
11:15 AM,41.2,41.2,100,30.22,2.5,NNE,4.6,-,N/A,,Overcast,20,2013-02-22 16:15:00
11:35 AM,41.2,41.2,100,30.21,4.0,NNE,5.8,-,N/A,,Overcast,20,2013-02-22 16:35:00
11:55 AM,41.4,41.4,100,30.21,4.0,NNE,4.6,-,N/A,,Overcast,30,2013-02-22 16:55:00
12:15 PM,41.4,41.4,100,30.20,4.0,NE,4.6,-,N/A,,Overcast,40,2013-02-22 17:15:00
12:35 PM,41.5,41.5,100,30.19,4.0,NNE,8.1,-,N/A,,Overcast,30,2013-02-22 17:35:00
12:55 PM,41.2,41.2,100,30.20,5.0,NNE,6.9,-,N/A,,Overcast,20,2013-02-22 17:55:00
1:15 PM,41.2,41.2,100,30.19,4.0,NNE,6.9,-,N/A,,Overcast,30,2013-02-22 18:15:00
1:35 PM,41.0,41.0,100,30.18,2.0,NE,6.9,-,N/A,,Overcast,40,2013-02-22 18:35:00
1:55 PM,40.6,40.6,100,30.18,2.0,NE,6.9,-,N/A,,Overcast,40,2013-02-22 18:55:00
2:15 PM,41.2,41.2,100,30.18,3.0,NE,4.6,-,N/A,,Overcast,40,2013-02-22 19:15:00
2:35 PM,41.0,41.0,100,30.18,2.5,NE,8.1,-,N/A,,Overcast,40,2013-02-22 19:35:00
2:55 PM,41.4,41.4,100,30.18,1.5,NE,8.1,-,N/A,,Overcast,40,2013-02-22 19:55:00
3:15 PM,41.0,41.0,100,30.17,3.0,NNE,8.1,-,N/A,,Overcast,20,2013-02-22 20:15:00
3:35 PM,41.0,41.0,100,30.16,1.8,NE,4.6,-,N/A,,Overcast,40,2013-02-22 20:35:00
3:55 PM,40.6,40.6,100,30.16,1.5,NE,4.6,-,N/A,,Overcast,50,2013-02-22 20:55:00
4:15 PM,40.5,40.5,100,30.15,1.8,NE,6.9,-,N/A,,Overcast,40,2013-02-22 21:15:00
4:35 PM,40.6,40.6,100,30.15,1.8,NE,9.2,-,N/A,,Overcast,40,2013-02-22 21:35:00
4:55 PM,40.3,40.3,100,30.14,1.8,NE,6.9,-,N/A,,Overcast,40,2013-02-22 21:55:00
5:15 PM,40.1,40.1,100,30.15,3.0,NNE,6.9,-,N/A,,Overcast,30,2013-02-22 22:15:00
5:35 PM,40.1,40.1,100,30.14,2.5,NE,8.1,-,N/A,,Overcast,50,2013-02-22 22:35:00
5:55 PM,39.9,39.9,100,30.14,1.5,NE,6.9,-,N/A,,Overcast,50,2013-02-22 22:55:00
6:15 PM,40.1,40.1,100,30.14,2.0,NE,5.8,-,N/A,,Overcast,50,2013-02-22 23:15:00
6:35 PM,39.7,39.7,100,30.13,2.0,NE,8.1,-,N/A,,Overcast,50,2013-02-22 23:35:00
6:55 PM,39.7,39.7,100,30.16,2.0,NNE,5.8,-,N/A,,Overcast,30,2013-02-22 23:55:00
7:15 PM,40.1,40.1,100,30.16,2.5,NNE,5.8,-,N/A,,Overcast,30,2013-02-23 00:15:00
7:35 PM,39.7,39.7,100,30.16,2.0,NE,5.8,-,N/A,,Overcast,40,2013-02-23 00:35:00
7:55 PM,39.6,39.6,100,30.16,2.5,NNE,6.9,-,N/A,,Overcast,20,2013-02-23 00:55:00
8:15 PM,39.7,39.7,100,30.16,2.5,NE,4.6,-,N/A,,Overcast,40,2013-02-23 01:15:00
8:35 PM,39.7,39.7,100,30.16,3.0,NNE,4.6,-,N/A,,Overcast,30,2013-02-23 01:35:00
8:55 PM,39.9,39.9,100,30.16,3.0,NNE,4.6,-,N/A,,Overcast,30,2013-02-23 01:55:00
9:15 PM,40.1,40.1,100,30.18,3.0,North,5.8,-,N/A,,Overcast,350,2013-02-23 02:15:00
9:35 PM,39.7,39.7,100,30.17,2.5,North,6.9,-,N/A,,Overcast,10,2013-02-23 02:35:00
9:55 PM,39.6,39.6,100,30.15,1.8,ENE,5.8,-,N/A,,Overcast,60,2013-02-23 02:55:00
10:15 PM,39.6,39.6,100,30.15,3.0,NE,5.8,-,N/A,,Overcast,50,2013-02-23 03:15:00
10:35 PM,39.6,39.6,100,30.15,4.0,NE,5.8,-,N/A,,Overcast,50,2013-02-23 03:35:00
10:55 PM,39.7,39.7,100,30.15,4.0,Calm,Calm,-,N/A,,Overcast,0,2013-02-23 03:55:00
11:15 PM,39.7,39.7,100,30.13,4.0,NE,4.6,-,N/A,,Overcast,40,2013-02-23 04:15:00
11:35 PM,39.7,39.7,100,30.14,3.0,ENE,4.6,-,N/A,,Overcast,60,2013-02-23 04:35:00
11:55 PM,39.7,39.7,100,30.14,5.0,NNE,6.9,-,N/A,,Overcast,20,2013-02-23 04:55:00